Weather History for Evansville, IN

Change the Weather History Date:

Wednesday, April 24, 2013

  Actual Average Record
Temperature  
Mean Temperature 44 °F 59 °F  
Max Temperature 51 °F 71 °F 89 °F (1925)
Min Temperature 37 °F 47 °F 30 °F (1963)
Degree Days  
Heating Degree Days 21 7  
Month to date heating degree days 253 252  
Since 1 July heating degree days 4397 4418  
Cooling Degree Days 0 1  
Month to date cooling degree days 33 16  
Year to date cooling degree days 33 19  
Moisture  
Dew Point 39 °F    
Average Humidity 75    
Maximum Humidity 96    
Minimum Humidity 54    
Precipitation  
Precipitation 0.29 in 0.16 in 1.95 in (1975)
Month to date precipitation 3.76 3.40  
Year to date precipitation 17.37 13.91  
Snow  
Snow 0.00 in 0.00 in - ()
Month to date snowfall 0.0 0.1  
Since 1 July snowfall 12.3 11.8  
Snow Depth 0.00 in    
Sea Level Pressure  
Sea Level Pressure 30.06 in    
Wind  
Wind Speed 8 mph (NW)    
Max Wind Speed 18 mph    
Max Gust Speed 26 mph    
Visibility 9 miles    
Events Rain    
T = Trace of Precipitation, MM = Missing Value Source: NWS Daily Summary

Daily Weather History Graph

Daily Weather History Graph

Search for Another Location

Airport:

Trip Planner

Search our weather history database for the weather conditions in past years. The results will help you decide how hot, cold, wet, or windy it might be!

Date:

Astronomy

Apr. 24, 2013 Rise Set
Actual Time 6:02 AM CDT 7:34 PM CDT
Civil Twilight 5:34 AM CDT 8:02 PM CDT
Nautical Twilight 5:00 AM CDT 8:36 PM CDT
Astronomical Twilight 4:25 AM CDT 9:11 PM CDT
Moon 6:38 PM CDT (4/24) 5:04 AM CDT (4/24)
Length of Visible Light 14h 28m
Length of Day
13h 32m
Waxing Gibbous, 98% of the Moon is Illuminated
Apr 24
Waxing Gibbous
Apr 25
Full
May 2
Last Quarter
May 9
New
May 17
First Quarter

Hourly Weather History & Observations

Time (CDT) Temp. Windchill Dew Point Humidity Pressure Visibility Wind Dir Wind Speed Gust Speed Precip Events Conditions
12:21 AM 53.6 °F - 48.2 °F 82% 29.90 in 10.0 mi WNW 10.4 mph - N/A   Overcast
12:54 AM 51.1 °F - 48.0 °F 89% 29.90 in 10.0 mi WNW 8.1 mph - N/A   Overcast
1:54 AM 48.9 °F - 45.0 °F 86% 29.91 in 10.0 mi NW 9.2 mph 17.3 mph 0.00 in Rain Light Rain
2:54 AM 46.9 °F - 44.1 °F 90% 29.91 in 10.0 mi NW 5.8 mph - 0.03 in   Overcast
3:32 AM 46.4 °F 42.9 °F 42.8 °F 87% 29.92 in 8.0 mi NW 6.9 mph 18.4 mph 0.00 in Rain Light Rain
3:54 AM 46.0 °F 40.6 °F 42.1 °F 86% 29.93 in 8.0 mi NW 11.5 mph - 0.00 in   Overcast
4:02 AM 46.4 °F 41.5 °F 42.8 °F 87% 29.93 in 6.0 mi NW 10.4 mph 17.3 mph N/A   Overcast
4:22 AM 44.6 °F 41.4 °F 42.8 °F 93% 29.92 in 5.0 mi NNW 5.8 mph - 0.00 in Rain Light Rain
4:44 AM 44.6 °F 39.7 °F 42.8 °F 93% 29.92 in 9.0 mi NW 9.2 mph - 0.03 in Rain Light Rain
4:54 AM 45.0 °F 40.6 °F 42.1 °F 90% 29.93 in 10.0 mi WNW 8.1 mph - 0.03 in   Overcast
5:02 AM 44.6 °F 40.2 °F 42.8 °F 93% 29.93 in 10.0 mi NW 8.1 mph - N/A   Overcast
5:24 AM 44.6 °F 38.8 °F 41.0 °F 87% 29.94 in 6.0 mi NW 11.5 mph - 0.05 in Rain Rain
5:49 AM 44.6 °F 39.7 °F 41.0 °F 87% 29.94 in 10.0 mi NW 9.2 mph - 0.05 in Rain Light Rain
5:54 AM 44.1 °F 37.7 °F 39.9 °F 85% 29.93 in 10.0 mi NW 12.7 mph 17.3 mph 0.05 in Rain Light Rain
6:54 AM 43.0 °F 39.5 °F 41.0 °F 93% 29.93 in 5.0 mi NNW 5.8 mph - 0.06 in Rain Light Rain
7:54 AM 43.0 °F 38.2 °F 39.9 °F 89% 29.96 in 7.0 mi NW 8.1 mph - 0.10 in Rain Rain
8:52 AM 42.8 °F 35.8 °F 39.2 °F 87% 30.02 in 10.0 mi NW 13.8 mph 24.2 mph 0.02 in   Overcast
8:54 AM 43.0 °F 35.7 °F 39.0 °F 86% 30.02 in 10.0 mi NW 15.0 mph 24.2 mph 0.02 in   Overcast
9:34 AM 42.8 °F 35.1 °F 37.4 °F 81% 30.03 in 5.0 mi NW 16.1 mph 26.5 mph 0.00 in Rain Light Rain
9:54 AM 43.0 °F 35.4 °F 37.9 °F 82% 30.06 in 10.0 mi NW 16.1 mph 21.9 mph 0.00 in   Overcast
10:07 AM 42.8 °F 36.6 °F 37.4 °F 81% 30.06 in 10.0 mi NW 11.5 mph 20.7 mph N/A   Overcast
10:43 AM 46.4 °F 40.7 °F 39.2 °F 76% 30.08 in 10.0 mi NW 12.7 mph 19.6 mph N/A   Overcast
10:54 AM 45.0 °F 40.1 °F 37.9 °F 76% 30.09 in 10.0 mi NW 9.2 mph - N/A   Overcast
11:54 AM 46.0 °F 39.3 °F 37.0 °F 71% 30.15 in 10.0 mi WNW 16.1 mph 21.9 mph N/A   Overcast
12:04 PM 44.6 °F 37.8 °F 37.4 °F 76% 30.15 in 10.0 mi WNW 15.0 mph 23.0 mph N/A   Overcast
12:54 PM 45.0 °F 38.5 °F 35.1 °F 68% 30.16 in 10.0 mi WNW 13.8 mph - N/A   Overcast
1:54 PM 45.0 °F 38.9 °F 35.1 °F 68% 30.18 in 10.0 mi WNW 12.7 mph - N/A   Overcast
2:21 PM 46.4 °F 41.5 °F 35.6 °F 66% 30.18 in 10.0 mi WNW 10.4 mph - N/A   Overcast
2:54 PM 48.9 °F - 34.0 °F 56% 30.19 in 10.0 mi West 8.1 mph - N/A   Overcast
3:54 PM 48.0 °F - 34.0 °F 58% 30.21 in 10.0 mi West 10.4 mph - N/A   Overcast
4:54 PM 48.0 °F - 34.0 °F 58% 30.22 in 10.0 mi WNW 11.5 mph - N/A   Overcast
5:54 PM 48.0 °F - 33.1 °F 56% 30.23 in 10.0 mi WNW 6.9 mph - N/A   Mostly Cloudy
6:54 PM 48.0 °F - 32.0 °F 54% 30.23 in 10.0 mi West 3.5 mph - N/A   Clear
7:54 PM 45.0 °F - 33.1 °F 63% 30.25 in 10.0 mi Calm Calm - N/A   Clear
8:54 PM 41.0 °F - 33.1 °F 73% 30.27 in 10.0 mi Calm Calm - N/A   Clear
9:54 PM 37.9 °F - 33.1 °F 83% 30.29 in 10.0 mi Calm Calm - N/A   Clear
10:54 PM 39.0 °F - 34.0 °F 82% 30.30 in 10.0 mi Calm Calm - N/A   Clear
11:54 PM 39.0 °F - 35.1 °F 86% 30.30 in 10.0 mi Calm Calm - N/A   Clear